RH
13 12 11 11 12 12 11 9 8 7 6 4 4 8 10 13 17 19 20 21 22 22 24 25 26 26 27 27 26 25 24 24 24
14 14 14 14 13 11 11 8 7 8 8 7 7 7 9 14 14 14 17 18 18 19 19 20 22 23 24 24 24 24 24 25 25
8 10 11 12 11 9 10 8 10 12 13 14 15 15 14 13 12 11 10 12 19 24 24 22 19 16 18 22 22 21 22 25 27
12 7 8 8 8 8 9 9 9 11 12 13 14 15 15 14 13 14 17 19 23 25 24 24 24 23 18 13 12 17 20 20 19
25 26 23 14 10 9 9 10 16 20 22 21 21 20 20 19 18 16 18 19 22 25 27 26 25 23 20 17 16 12 9 12 19
32 28 28 29 28 26 25 23 23 24 24 24 25 25 26 25 25 26 24 25 25 24 24 20 16 14 16 16 14 12 10 9 8
37 32 30 28 27 27 27 28 27 26 26 26 27 25 26 23 17 14 16 19 19 17 13 11 10 11 12 11 10 9 9 10 9
32 28 26 26 28 28 29 28 27 26 24 23 18 13 9 6 6 8 10 10 9 8 8 7 7 7 7 8 8 8 8 8 9
36 32 30 28 27 25 24 23 20 11 3 2 2 3 3 5 6 7 7 7 6 6 6 6 6 6 6 6 6 6 6 6 6
31 29 28 26 23 18 13 8 3 1 1 2 3 4 5 6 7 9 12 15 17 17 18 22 24 25 26 26 27 28 28 28 27
29 28 25 17 10 6 5 3 3 4 8 13 16 19 22 23 23 24 27 28 30 29 26 23 20 18 17 16 16 17 18 20 23
36 32 23 12 5 4 6 9 14 18 19 22 25 27 31 33 30 25 19 14 12 11 10 9 9 8 8 9 11 14 16 18 21
34 17 8 6 7 10 13 14 16 21 22 30 34 31 21 14 11 10 9 9 10 10 11 12 12 11 10 9 8 8 8 8 8
16 8 8 10 17 23 27 29 32 34 31 25 14 10 10 10 12 12 11 12 11 12 13 13 15 16 17 16 15 14 13 12 12
8 10 13 28 35 38 38 35 28 22 17 14 13 13 13 12 12 11 13 14 15 16 16 17 18 19 19 18 18 18 17 16 14
13 31 40 41 40 33 28 22 21 18 15 15 15 14 12 11 10 10 12 13 15 17 17 17 17 17 17 16 15 14 13 13 12
33 43 45 38 31 26 24 22 16 14 18 18 14 12 13 13 14 14 14 15 16 18 18 18 18 18 18 17 17 16 14 14 14
50 45 36 32 31 28 20 15 18 20 16 15 15 13 12 11 12 12 15 17 18 18 19 19 19 19 18 18 17 16 16 13 12
42 35 36 39 30 18 19 18 16 16 16 16 17 16 15 12 9 13 17 19 19 19 19 19 18 17 16 14 13 12 11 10 10
37 43 43 28 21 18 18 21 21 20 18 18 17 16 18 21 20 16 17 17 18 18 16 15 14 13 11 10 9 9 9 9 8
Wind_Speed
19 19 19 19 19 20 22 23 22 21 21 20 20 23 22 21 23 24 24 23 22 22 23 22 21 20 21 22 23 23 23 22 23
22 22 22 22 22 23 22 21 21 21 20 20 20 23 24 23 24 26 27 27 27 27 28 29 28 28 27 27 28 28 28 28 28
24 24 25 25 25 25 23 23 22 22 23 23 24 26 27 28 29 31 31 30 29 31 33 33 33 35 35 35 35 34 34 34 34
20 20 22 22 23 24 24 24 26 26 28 28 29 31 32 33 34 34 34 35 35 36 38 39 39 39 39 40 39 39 39 38 38
24 24 24 24 24 25 25 27 29 30 31 31 33 34 35 35 36 37 39 40 42 42 43 44 45 44 42 42 43 43 44 44 43
27 27 26 27 27 27 29 30 32 33 34 37 37 39 40 41 42 42 45 47 47 50 49 47 47 45 44 44 45 45 46 47 48
26 26 27 28 29 30 32 34 36 37 40 42 43 44 44 47 47 47 48 50 50 49 47 45 45 46 46 47 48 48 48 48 48
23 24 27 29 31 32 34 36 38 41 43 46 48 47 47 45 43 43 43 42 43 45 45 45 46 46 47 48 49 50 50 51 51
23 25 27 29 32 35 37 40 42 45 44 43 43 42 40 38 39 38 38 39 41 42 42 43 43 44 45 46 47 48 49 49 50
27 30 32 35 37 38 41 41 41 40 39 38 36 36 35 35 36 36 37 38 41 43 44 45 47 48 49 50 51 51 52 52 53
31 33 36 37 39 40 39 38 37 36 35 34 35 36 36 37 39 40 41 43 44 46 49 50 51 52 53 54 54 54 55 55 55
35 37 39 39 38 37 37 36 35 36 36 37 38 39 40 41 43 44 44 45 45 46 49 52 54 55 55 56 56 57 57 57 56
38 40 39 37 37 36 36 36 36 38 39 39 40 40 40 40 41 43 46 47 50 51 52 55 57 60 60 60 60 60 60 59 59
40 39 36 36 36 37 37 38 39 39 40 39 38 38 40 43 45 49 52 54 57 58 61 62 62 63 65 67 67 67 66 67 67
37 35 35 36 37 38 38 39 40 40 40 40 41 41 43 46 49 53 55 59 61 63 65 66 67 68 68 70 72 74 73 72 71
36 36 36 37 37 38 40 39 40 40 43 45 45 47 50 53 56 58 61 62 64 65 68 70 72 73 74 74 73 75 77 78 78
36 37 37 39 40 41 41 41 43 46 49 51 53 55 54 58 62 65 68 68 70 70 71 73 76 78 80 80 81 81 84 84 84
39 40 41 41 42 43 45 48 50 51 52 56 61 63 65 68 70 72 73 74 75 76 77 78 80 82 83 86 87 90 90 91 91
41 41 42 43 45 47 49 50 52 55 59 63 67 71 76 81 81 82 80 79 80 80 81 83 85 87 89 91 92 93 93 94 94
43 43 44 45 46 49 52 56 59 63 67 71 73 76 77 78 81 84 86 86 86 86 87 90 91 93 95 97 98 99 100 100 99
Wind_Direction
265 269 272 279 282 286 282 279 281 282 284 284 282 284 287 290 290 293 296 299 300 302 304 303 301 298 295 291 290 290 289 287 289
265 268 273 278 282 284 283 278 276 279 281 281 282 281 281 283 287 288 288 290 291 291 292 292 292 290 288 288 288 287 286 285 287
269 271 274 276 280 283 284 283 282 282 282 283 284 284 284 285 284 284 285 285 287 292 292 290 286 284 282 282 281 282 283 282 283
284 283 281 280 280 280 281 284 283 283 284 286 285 284 284 282 282 282 283 284 285 287 288 287 286 284 280 278 277 277 278 279 279
284 285 285 285 284 284 285 281 282 284 285 287 287 285 282 281 280 279 279 279 282 283 285 285 284 282 280 278 277 275 273 273 273
281 284 285 284 283 282 281 280 280 282 284 284 282 283 283 284 283 281 280 281 282 285 283 282 281 279 276 275 275 275 274 272 272
282 282 283 283 283 282 280 280 281 283 283 284 286 285 286 286 285 284 281 280 280 281 282 283 282 281 279 277 276 275 273 273 273
286 284 282 282 282 282 283 283 284 284 283 284 284 284 286 285 287 286 284 282 282 284 285 285 284 282 281 281 281 280 279 278 278
285 282 281 282 282 283 284 285 284 285 289 290 288 286 286 288 287 287 289 290 289 288 289 289 289 288 286 285 283 282 281 280 279
289 290 289 287 286 286 286 286 287 289 290 289 290 290 291 291 291 290 290 290 290 290 290 289 289 288 287 286 285 284 283 282 281
294 294 294 293 290 288 288 289 289 290 291 293 294 294 295 294 294 294 294 294 293 294 293 292 290 289 288 287 285 284 282 280 279
295 297 297 296 294 292 291 291 293 293 294 295 296 297 298 299 298 298 297 296 295 294 294 294 293 291 290 288 287 285 283 282 280
296 298 298 297 297 297 297 296 296 296 295 296 297 298 298 298 298 298 296 297 297 295 294 294 294 293 291 289 287 286 284 282 281
298 299 300 300 301 301 301 300 298 297 297 297 297 299 300 299 300 298 299 298 296 295 294 293 291 290 289 288 286 284 282 281 280
300 300 300 302 302 301 301 300 300 298 297 297 297 298 298 300 300 300 300 298 298 295 293 291 289 287 286 285 285 284 283 280 279
299 301 301 301 300 300 299 298 296 296 297 296 295 296 297 299 300 300 300 298 296 295 292 291 290 289 288 286 284 282 281 280 279
297 299 300 301 300 299 298 297 297 297 297 296 296 296 297 299 300 300 299 297 295 293 291 290 289 288 286 285 283 282 281 279 278
301 301 300 300 300 300 300 299 298 298 298 299 301 299 296 295 299 298 298 297 295 293 291 288 286 285 284 283 282 281 279 279 278
299 300 301 300 299 298 299 300 301 302 303 303 303 302 300 299 298 299 299 298 296 295 293 292 289 287 285 283 281 280 279 277 275
299 298 297 297 299 301 302 303 303 304 303 302 300 299 299 299 300 300 300 300 298 297 296 294 293 291 289 287 285 283 280 277 274